[[{"header":{"parameterUnit":"m.s-1","parameterCategory":1,"la1":30.2991,"la2":30.254,"lo1":-89.0895,"lo2":-89.0444,"dy":0.0017,"dx":0.0017,"nx":28,"ny":28,"refTime":"2025-08-06T21:00:00:Z","depth":0,"parameterNumber":2,"parameterNumberName":"U-component_of_WINDS"},"data":[0,0,0,0,0,0,0,0,0,0,0,0,0,0,0,0,0,0,0,0,0,0,0,0,0,0,0,0,0,0,0,0,0,0,0,0,0,0,0,0,0,0,0,0,0,0,0,0,0,0,0,0,0,0,0,0,0,0,-0.3571,-0.3571,0,-0.3535,-0.3535,-0.3534,-0.3535,-0.3536,-0.3536,-0.3537,-0.3498,-0.3497,-0.3495,0,0,0,0,0,0,0,0,0,0,0,0,0,-0.3642,-0.3641,-0.3571,-0.3571,-0.357,-0.3535,-0.3535,-0.3534,-0.3535,-0.3536,-0.3537,-0.3537,-0.3499,-0.3497,-0.3495,0,0,0,0,0,0,0,0,0,0,0,0,0,-0.3609,-0.364,-0.3571,-0.3567,-0.3566,-0.3535,-0.3534,-0.3534,-0.3535,-0.3536,-0.3537,-0.3537,-0.3499,-0.3497,-0.3495,-0.3466,0,0,-0.3488,-0.3487,0,0,0,0,0,0,0,0,-0.3611,-0.3606,-0.3568,-0.3567,-0.3566,-0.3541,-0.3545,-0.3511,-0.3535,-0.3547,-0.3537,-0.3538,-0.3512,-0.3509,-0.35,-0.3464,-0.3463,-0.3488,-0.3487,-0.3486,-0.3485,0,0,0,0,0,0,0,-0.3613,-0.3608,-0.3557,-0.3567,-0.3566,-0.3567,-0.3563,-0.3539,-0.3525,-0.3546,-0.3546,-0.3542,-0.3511,-0.3502,-0.3499,-0.3462,-0.3488,-0.3486,-0.3485,-0.3484,-0.3403,-0.3402,0,0,0,0,0,0,-0.3616,-0.361,-0.3558,-0.3556,-0.3591,-0.3565,-0.356,-0.3548,-0.3526,-0.3523,-0.3541,-0.3542,-0.3506,-0.3502,-0.3498,-0.3463,-0.3486,-0.3484,-0.3482,-0.3403,-0.3402,-0.3402,0,0,0,0,0,0,-0.3618,-0.3612,-0.3559,-0.3583,-0.3576,-0.3563,-0.3549,-0.3547,-0.3538,-0.3522,-0.352,-0.3534,-0.3506,-0.3501,-0.3474,-0.3462,-0.3483,-0.3481,-0.3404,-0.3403,-0.3402,-0.3393,0,0,0,0,0,0,-0.362,-0.3612,-0.3601,-0.3583,-0.3575,-0.3536,-0.3548,-0.3546,-0.3534,-0.3535,-0.3515,-0.3512,-0.3506,-0.3478,-0.3472,-0.3459,-0.3479,-0.3405,-0.3404,-0.3402,-0.3395,-0.3392,-0.339,0,0,0,0,0,-0.3622,-0.3599,-0.36,-0.3594,-0.356,-0.3536,-0.3531,-0.3525,-0.3533,-0.3521,-0.3512,-0.3513,-0.3464,-0.3475,-0.3469,-0.3455,-0.3406,-0.3404,-0.3402,-0.3396,-0.3393,-0.339,0,0,0,0,0,0,-0.3615,-0.3596,-0.3597,-0.3568,-0.3553,-0.3536,-0.3521,-0.3522,-0.3505,-0.3506,-0.3499,-0.3494,-0.3468,-0.3459,-0.3471,-0.3427,-0.3436,-0.3433,-0.3433,-0.343,-0.3428,-0.343,-0.3477,0,0,0,0,0,-0.361,-0.3592,-0.3577,-0.3552,-0.3545,-0.3534,-0.3523,-0.352,-0.3505,-0.3499,-0.3487,-0.3472,-0.3454,-0.3441,-0.3423,-0.3394,-0.339,-0.3381,-0.3379,-0.3377,-0.3374,-0.3359,-0.3356,-0.3396,-0.3396,-0.3396,0,0,-0.3599,-0.3587,-0.3575,-0.355,-0.3539,-0.352,-0.3529,-0.3509,-0.3495,-0.3495,-0.347,-0.3461,-0.3444,-0.3416,-0.3404,-0.3408,-0.3363,-0.3375,-0.3373,-0.3371,-0.3357,-0.3353,-0.335,-0.3394,-0.3395,-0.3395,0,0,-0.357,-0.3559,-0.3537,-0.3527,-0.351,-0.3503,-0.3499,-0.3482,-0.3476,-0.3451,-0.3451,-0.3435,-0.3403,-0.3391,-0.3381,-0.3351,-0.3352,-0.3345,-0.3332,-0.3318,-0.3314,-0.3312,-0.3302,-0.3298,-0.3343,-0.3343,-0.3343,0,-0.3558,-0.3531,-0.3526,-0.3506,-0.3496,-0.3497,-0.3476,-0.3465,-0.3443,-0.3436,-0.3441,-0.3402,-0.3391,-0.3361,-0.3354,-0.3346,-0.334,-0.3347,-0.3315,-0.3312,-0.331,-0.33,-0.3296,-0.3342,-0.3342,-0.3342,-0.3342,0,-0.3518,-0.3499,-0.3484,-0.3464,-0.3451,-0.3431,-0.3424,-0.3412,-0.3411,-0.3404,-0.3379,-0.3366,-0.3346,-0.3339,-0.3337,-0.3309,-0.3313,-0.3317,-0.3326,-0.3305,-0.3296,-0.3292,-0.3341,-0.3341,-0.3341,-0.3342,0,0,-0.348,-0.3461,-0.3455,-0.3447,-0.343,-0.3415,-0.3396,-0.3377,-0.3367,-0.3353,-0.3337,-0.3311,-0.3315,-0.3304,-0.3301,-0.3288,-0.3266,-0.3294,-0.3294,-0.329,-0.3237,-0.3234,-0.3229,-0.3267,-0.3267,-0.3266,-0.3238,0,-0.345,-0.3415,-0.3412,-0.3381,-0.3364,-0.3366,-0.335,-0.3337,-0.3331,-0.3316,-0.331,-0.3292,-0.3299,-0.3292,-0.328,-0.3272,-0.3256,-0.3274,-0.3252,-0.3252,-0.3256,-0.3224,-0.322,-0.3195,-0.3235,-0.3234,-0.3234,0,-0.3409,-0.3395,-0.3362,-0.335,-0.3343,-0.3327,-0.3311,-0.3297,-0.3284,-0.3281,-0.3269,-0.3268,-0.3249,-0.326,-0.3234,-0.3246,-0.3237,-0.3232,-0.3231,-0.3229,-0.3241,-0.3221,-0.3187,-0.3183,-0.3228,-0.3228,-0.3229,0,-0.3386,-0.3359,-0.3336,-0.3329,-0.3314,-0.3303,-0.3296,-0.3284,-0.3274,-0.326,-0.3254,-0.3237,-0.3228,-0.3216,-0.3211,-0.322,-0.3186,-0.3196,-0.3182,-0.3183,-0.3174,-0.3175,-0.3138,-0.3169,-0.3169,-0.3169,-0.3169,0,-0.3351,-0.3332,-0.3326,-0.3312,-0.3291,-0.3288,-0.3267,-0.326,-0.325,-0.3235,-0.3236,-0.3222,-0.3217,-0.3203,-0.3199,-0.3178,-0.3174,-0.3171,-0.317,-0.3171,-0.3171,-0.3165,-0.3166,-0.3168,-0.3168,-0.3169,-0.3169,0,-0.3321,-0.3316,-0.3292,-0.3281,-0.3278,-0.3262,-0.3252,-0.3239,-0.3235,-0.3216,-0.3212,-0.3204,-0.3187,-0.3182,-0.3161,-0.3159,-0.3135,-0.3136,-0.314,-0.3139,-0.3126,-0.3128,-0.3084,-0.3078,-0.3113,-0.3113,-0.3112,0,-0.3299,-0.3284,-0.3272,-0.3263,-0.3256,-0.3241,-0.3231,-0.3228,-0.3218,-0.3204,-0.3193,-0.3177,-0.3164,-0.3137,-0.313,-0.3115,-0.3115,-0.3101,-0.3112,-0.3114,-0.3115,-0.3116,-0.3115,-0.3098,-0.3098,-0.3098,-0.3097,0,-0.3261,-0.326,-0.3247,-0.3233,-0.3222,-0.321,-0.3199,-0.3192,-0.3188,-0.3176,-0.316,-0.315,-0.3131,-0.3115,-0.31,-0.3093,-0.3095,-0.3094,-0.309,-0.309,-0.3093,-0.3092,-0.3134,-0.3095,-0.3095,-0.3095,-0.3095,-0.3095,-0.3234,-0.3222,-0.3212,-0.3197,-0.319,-0.318,-0.3168,-0.3163,-0.3149,-0.3134,-0.3133,-0.3116,-0.3105,-0.3086,-0.3078,-0.3065,-0.3069,-0.3063,-0.3062,-0.306,-0.306,-0.3096,-0.3062,-0.3062,-0.3062,-0.3062,-0.3062,0,-0.3197,-0.3191,-0.3178,-0.3164,-0.3153,-0.3157,-0.3146,-0.3136,-0.3121,-0.3111,-0.3099,-0.3081,-0.3067,-0.3059,-0.3045,-0.3036,-0.3037,-0.3032,-0.3033,-0.3031,-0.3056,-0.3061,-0.3032,-0.3032,-0.3032,-0.3032,-0.3032,-0.3032,-0.3176,-0.3156,-0.3154,-0.3131,-0.3125,-0.3109,-0.3103,-0.3094,-0.3087,-0.3067,-0.3056,-0.3052,-0.3043,-0.3029,-0.3016,-0.3014,-0.3009,-0.3004,-0.3003,-0.3026,-0.3029,-0.3032,-0.3037,-0.3003,-0.3003,-0.2979,-0.2979,-0.2979]},{"header":{"parameterUnit":"m.s-1","parameterCategory":1,"la1":30.2991,"la2":30.254,"lo1":-89.0895,"lo2":-89.0444,"dy":0.0017,"dx":0.0017,"nx":28,"ny":28,"refTime":"2025-08-06T21:00:00:Z","depth":0,"parameterNumber":3,"parameterNumberName":"V-component_of_WINDS"},"data":[0,0,0,0,0,0,0,0,0,0,0,0,0,0,0,0,0,0,0,0,0,0,0,0,0,0,0,0,0,0,0,0,0,0,0,0,0,0,0,0,0,0,0,0,0,0,0,0,0,0,0,0,0,0,0,0,0,0,1.549,1.549,0,1.551,1.551,1.551,1.5558,1.5559,1.556,1.5561,1.5579,1.5579,1.5578,0,0,0,0,0,0,0,0,0,0,0,0,0,1.549,1.549,1.549,1.549,1.549,1.551,1.551,1.551,1.5558,1.5559,1.556,1.5561,1.5579,1.5579,1.5578,0,0,0,0,0,0,0,0,0,0,0,0,0,1.5498,1.549,1.549,1.5517,1.5519,1.551,1.551,1.551,1.5557,1.5559,1.5561,1.5562,1.558,1.5579,1.5578,1.5544,0,0,1.5576,1.5576,0,0,0,0,0,0,0,0,1.5498,1.5498,1.5512,1.5515,1.5518,1.5533,1.5517,1.5521,1.5557,1.5543,1.5561,1.5563,1.5562,1.5563,1.5564,1.5545,1.5546,1.5576,1.5576,1.5575,1.5575,0,0,0,0,0,0,0,1.5497,1.5497,1.5498,1.5512,1.5516,1.5526,1.5529,1.5518,1.5544,1.5544,1.5548,1.555,1.5564,1.5564,1.5564,1.5546,1.5576,1.5576,1.5575,1.5575,1.5497,1.5495,0,0,0,0,0,0,1.5493,1.5497,1.5497,1.5498,1.5511,1.5525,1.5528,1.5526,1.5544,1.5548,1.5548,1.5552,1.5565,1.5565,1.5565,1.5524,1.5575,1.5575,1.5574,1.5498,1.5496,1.5494,0,0,0,0,0,0,1.5493,1.5493,1.5496,1.5498,1.55,1.5524,1.5521,1.5526,1.5526,1.5547,1.5552,1.5544,1.5566,1.5566,1.5548,1.5525,1.5575,1.5574,1.55,1.5498,1.5495,1.5442,0,0,0,0,0,0,1.5493,1.5492,1.548,1.5498,1.5499,1.548,1.552,1.5525,1.5525,1.553,1.5544,1.5548,1.5567,1.5549,1.5548,1.5525,1.5573,1.5502,1.5499,1.5496,1.5446,1.5438,1.5431,0,0,0,0,0,1.5493,1.5465,1.5479,1.5479,1.5485,1.5478,1.5479,1.5502,1.5523,1.551,1.5524,1.5547,1.5528,1.5547,1.5546,1.5522,1.5504,1.55,1.5496,1.5449,1.5439,1.5431,0,0,0,0,0,0,1.5444,1.5467,1.5484,1.5461,1.5467,1.5486,1.5471,1.5492,1.5492,1.5496,1.5524,1.5527,1.5504,1.5512,1.5532,1.5489,1.552,1.5516,1.5484,1.5475,1.5468,1.5466,1.5573,0,0,0,0,0,1.543,1.5423,1.5445,1.5422,1.5425,1.5447,1.5445,1.5462,1.547,1.5472,1.5484,1.549,1.5485,1.5481,1.5478,1.5448,1.545,1.5431,1.5424,1.5418,1.5413,1.5395,1.5386,1.5482,1.5482,1.5482,0,0,1.5402,1.5414,1.5409,1.5413,1.5419,1.541,1.5449,1.5439,1.5432,1.5471,1.5454,1.5463,1.547,1.5445,1.5435,1.5451,1.5387,1.5413,1.5408,1.5406,1.539,1.5381,1.5373,1.5479,1.548,1.548,0,0,1.5346,1.5356,1.5337,1.5343,1.5352,1.5367,1.5363,1.5378,1.5386,1.537,1.5398,1.539,1.5381,1.5385,1.5385,1.5329,1.535,1.5327,1.5288,1.527,1.5262,1.5256,1.5233,1.5224,1.5323,1.5323,1.5323,0,1.531,1.5298,1.5325,1.5312,1.5311,1.5347,1.5326,1.5331,1.5338,1.5337,1.5355,1.5344,1.5352,1.5327,1.5313,1.5313,1.5307,1.5325,1.5261,1.5255,1.5249,1.5227,1.5219,1.532,1.532,1.532,1.5321,0,1.5252,1.5243,1.5227,1.5233,1.5231,1.5215,1.5237,1.5232,1.5249,1.5262,1.5243,1.5254,1.5252,1.5248,1.5265,1.5225,1.5234,1.5257,1.5288,1.5236,1.5216,1.5209,1.5315,1.5317,1.5317,1.5318,0,0,1.5165,1.5185,1.5178,1.518,1.5193,1.5186,1.5171,1.5169,1.5163,1.5167,1.5153,1.5144,1.5164,1.5165,1.5183,1.5167,1.5118,1.5191,1.5192,1.5175,1.5071,1.5052,1.5042,1.5133,1.5132,1.513,1.5069,0,1.511,1.5085,1.5107,1.5077,1.5067,1.51,1.5086,1.5091,1.5103,1.5095,1.5108,1.51,1.5129,1.5129,1.5115,1.5127,1.5097,1.5132,1.5118,1.5117,1.5112,1.5032,1.5013,1.4955,1.5062,1.5061,1.506,0,1.5043,1.5043,1.5011,1.5023,1.502,1.5008,1.5007,1.5,1.5006,1.5015,1.5015,1.5036,1.502,1.5052,1.5029,1.5052,1.5048,1.5053,1.5051,1.5048,1.5083,1.5025,1.4937,1.4927,1.5048,1.5049,1.505,0,1.4978,1.4971,1.4951,1.4952,1.4967,1.4956,1.4962,1.497,1.4966,1.4966,1.4963,1.4961,1.4959,1.4956,1.4975,1.4997,1.4948,1.4982,1.4953,1.4952,1.4939,1.4939,1.4846,1.4941,1.4941,1.4941,1.4941,0,1.4913,1.4892,1.4922,1.4909,1.4885,1.4911,1.4887,1.4896,1.4902,1.489,1.4919,1.4907,1.4935,1.4925,1.494,1.4917,1.4916,1.4922,1.4925,1.4918,1.4916,1.4913,1.4917,1.4939,1.4939,1.494,1.494,0,1.4837,1.4857,1.4836,1.4851,1.4855,1.4836,1.4849,1.4837,1.485,1.4834,1.4832,1.4852,1.4842,1.4861,1.4854,1.4864,1.4831,1.4842,1.4828,1.4831,1.4799,1.48,1.4699,1.4685,1.4791,1.479,1.4789,0,1.4793,1.4777,1.4791,1.4785,1.4788,1.4779,1.4776,1.48,1.4795,1.48,1.4786,1.4779,1.4774,1.4757,1.477,1.4764,1.4774,1.4738,1.4773,1.4764,1.477,1.4769,1.4766,1.473,1.4729,1.4728,1.4727,0,1.4712,1.4722,1.4716,1.4713,1.4708,1.4707,1.4707,1.4701,1.4727,1.4719,1.471,1.4706,1.4698,1.4689,1.4686,1.4691,1.4712,1.4717,1.4709,1.4699,1.4691,1.4692,1.4806,1.4718,1.4719,1.472,1.472,1.4721,1.4648,1.4635,1.4641,1.4633,1.4636,1.4636,1.4624,1.4635,1.4628,1.4623,1.4638,1.4624,1.4629,1.4627,1.4629,1.4617,1.4633,1.4622,1.4619,1.4616,1.4609,1.4695,1.4617,1.4617,1.4618,1.4618,1.4618,0,1.4566,1.4571,1.4564,1.4563,1.4556,1.4578,1.458,1.4572,1.4559,1.4562,1.4556,1.4544,1.4535,1.4547,1.454,1.4528,1.4538,1.4525,1.4525,1.4525,1.4597,1.4603,1.4518,1.4518,1.4518,1.4518,1.4518,1.4518,1.4522,1.4499,1.4509,1.4487,1.4493,1.448,1.4478,1.4477,1.4479,1.4463,1.4456,1.4465,1.447,1.4464,1.4456,1.446,1.4454,1.4438,1.4444,1.4511,1.452,1.453,1.4535,1.4437,1.4437,1.4373,1.4372,1.4372]}]]